Date String (YYYY-MM-DD hh:mm:ss) UTC,Instrument flags,absolute air pressure of the measurement (hPa),sample flow rate (lpm),inlet stack bypass flow (lpm),air temperature of the measurement (°C),ambient temperature measured by the external sensor (°C),aerosol sample conditioner tube jacket temperature (°C),OPC LED temperature (°C),internal box temperature (°C),relative humidity of the measurement (%),span deviation,mass concentration of particles derived from Lorenz-Mie calculation of OPC scattering (μg/m³),mass concentration of particles derived from Lorenz-Mie calculation of OPC scattering (μg/m³),mass concentration of particles derived from Lorenz-Mie calculation of OPC scattering (μg/m³)
DateTimeUTC,F1_M11,P_M11,Q1_M11,Q2_M11,T1_M11,T2_M11,T3_M11,T4_M11,T5_M11,U1_M11,ZSPAN_M11,X0_M11,X2_M11,X1_M11
2024-05-04 22:00:00,SystemResetWarning,0827.1,5.01,000.00,025.3,024.8,000.0,033.5,027.1,018.7,0000.0,0013.56,0005.97,0004.94
2024-05-04 22:01:00,SystemResetWarning,0827.1,5.01,000.00,025.3,024.8,000.0,033.5,027.2,018.6,0000.0,0013.85,0005.92,0004.92
2024-05-04 22:02:00,SystemResetWarning,0827.2,5.01,000.00,025.3,024.8,000.0,033.5,027.2,018.3,0000.0,0014.08,0005.93,0004.90
2024-05-04 22:03:00,SystemResetWarning,0827.2,4.99,000.00,025.4,024.9,000.0,033.5,027.2,018.2,0000.0,0014.52,0005.92,0004.86
2024-05-04 22:04:00,SystemResetWarning,0827.1,5.00,000.00,025.4,024.9,000.0,033.6,027.2,018.4,0000.0,0015.75,0005.96,0004.86
2024-05-04 22:05:00,SystemResetWarning,0827.2,4.99,000.00,025.4,024.9,000.0,033.6,027.2,018.6,0000.0,0017.06,0005.98,0004.87
2024-05-04 22:06:00,SystemResetWarning,0827.2,4.99,000.00,025.4,024.9,000.0,033.6,027.2,018.6,0000.0,0017.26,0005.97,0004.87
2024-05-04 22:07:00,SystemResetWarning,0827.1,5.01,000.00,025.4,024.9,000.0,033.6,027.3,018.7,0000.0,0016.86,0006.00,0004.86
2024-05-04 22:08:00,SystemResetWarning,0827.1,5.01,000.00,025.4,025.0,000.0,033.7,027.3,018.7,0000.0,0018.32,0005.99,0004.83
2024-05-04 22:09:00,SystemResetWarning,0827.1,4.99,000.00,025.5,025.0,000.0,033.7,027.3,018.4,0000.0,0018.59,0005.96,0004.82
2024-05-04 22:10:00,SystemResetWarning,0827.1,4.99,000.00,025.5,025.0,000.0,033.7,027.3,018.4,0000.0,0018.71,0005.95,0004.82
2024-05-04 22:11:00,SystemResetWarning,0827.1,4.99,000.00,025.5,025.0,000.0,033.7,027.3,018.3,0000.0,0018.79,0005.99,0004.84
2024-05-04 22:12:00,SystemResetWarning,0827.1,5.01,000.00,025.5,025.0,000.0,033.7,027.4,018.0,0000.0,0018.42,0006.03,0004.86
2024-05-04 22:13:00,SystemResetWarning,0827.1,5.01,000.00,025.6,025.1,000.0,033.8,027.4,018.1,0000.0,0019.08,0006.04,0004.90
2024-05-04 22:14:00,SystemResetWarning,0827.1,4.99,000.00,025.6,025.1,000.0,033.8,027.4,018.3,0000.0,0019.40,0006.07,0004.93
2024-05-04 22:15:00,SystemResetWarning,0827.1,5.00,000.00,025.6,025.1,000.0,033.8,027.4,018.2,0000.0,0019.13,0006.08,0004.93
2024-05-04 22:16:00,SystemResetWarning,0827.1,5.00,000.00,025.6,025.1,000.0,033.8,027.4,018.0,0000.0,0017.93,0006.03,0004.94
2024-05-04 22:17:00,SystemResetWarning,0827.1,4.99,000.00,025.6,025.2,000.0,033.8,027.5,018.1,0000.0,0017.76,0006.02,0004.94
2024-05-04 22:18:00,SystemResetWarning,0827.1,5.00,000.00,025.7,025.2,000.0,033.9,027.5,017.9,0000.0,0016.92,0006.09,0004.97
2024-05-04 22:19:00,SystemResetWarning,0827.1,5.00,000.00,025.7,025.2,000.0,033.9,027.5,018.0,0000.0,0015.81,0006.14,0005.02
2024-05-04 22:20:00,SystemResetWarning,0827.0,5.01,000.00,025.7,025.2,000.0,033.9,027.5,017.9,0000.0,0015.14,0006.22,0005.07
2024-05-04 22:21:00,SystemResetWarning,0827.0,5.00,000.00,025.7,025.2,000.0,033.9,027.6,018.1,0000.0,0015.70,0006.28,0005.09
2024-05-04 22:22:00,SystemResetWarning,0827.0,4.99,000.00,025.7,025.2,000.0,034.0,027.6,018.0,0000.0,0016.54,0006.30,0005.10
2024-05-04 22:23:00,SystemResetWarning,0827.0,4.99,000.00,025.8,025.3,000.0,034.0,027.6,017.8,0000.0,0017.35,0006.27,0005.10
2024-05-04 22:24:00,SystemResetWarning,0827.0,4.99,000.00,025.8,025.3,000.0,034.0,027.6,017.8,0000.0,0017.00,0006.23,0005.09
2024-05-04 22:25:00,SystemResetWarning,0826.9,5.01,000.00,025.8,025.3,000.0,034.0,027.6,017.9,0000.0,0016.57,0006.18,0005.07
2024-05-04 22:26:00,SystemResetWarning,0826.9,5.00,000.00,025.8,025.3,000.0,034.0,027.7,017.7,0000.0,0015.86,0006.17,0005.06
2024-05-04 22:27:00,SystemResetWarning,0826.9,5.00,000.00,025.8,025.3,000.0,034.1,027.7,017.7,0000.0,0016.29,0006.16,0005.06
2024-05-04 22:28:00,SystemResetWarning,0826.9,5.01,000.00,025.9,025.4,000.0,034.1,027.7,017.7,0000.0,0016.47,0006.19,0005.07
2024-05-04 22:29:00,SystemResetWarning,0826.9,5.00,000.00,025.9,025.4,000.0,034.1,027.7,017.7,0000.0,0016.94,0006.19,0005.07
2024-05-04 22:30:00,SystemResetWarning,0826.9,4.99,000.00,025.9,025.4,000.0,034.1,027.8,017.7,0000.0,0017.62,0006.14,0005.06
2024-05-04 22:31:00,SystemResetWarning,0826.9,4.99,000.00,025.9,025.4,000.0,034.1,027.8,017.7,0000.0,0017.81,0006.09,0005.05
2024-05-04 22:32:00,SystemResetWarning,0826.9,5.00,000.00,025.9,025.4,000.0,034.2,027.8,017.7,0000.0,0017.64,0006.07,0005.05
2024-05-04 22:33:00,SystemResetWarning,0826.8,5.00,000.00,026.0,025.5,000.0,034.2,027.8,017.8,0000.0,0016.21,0006.03,0005.05
2024-05-04 22:34:00,SystemResetWarning,0826.8,5.00,000.00,026.0,025.5,000.0,034.2,027.8,017.6,0000.0,0015.82,0006.02,0005.06
2024-05-04 22:35:00,SystemResetWarning,0826.8,5.01,000.00,026.0,025.5,000.0,034.2,027.8,017.9,0000.0,0016.09,0006.00,0005.04
2024-05-04 22:36:00,SystemResetWarning,0826.8,5.01,000.00,026.0,025.5,000.0,034.2,027.8,017.8,0000.0,0015.94,0006.01,0005.03
2024-05-04 22:37:00,SystemResetWarning,0826.8,5.00,000.00,026.0,025.5,000.0,034.3,027.9,017.7,0001.1,0016.61,0006.01,0005.04
2024-05-04 22:38:00,SystemResetWarning,0826.8,5.00,000.00,026.0,025.5,000.0,034.3,027.9,017.9,0001.7,0016.86,0006.01,0005.04
2024-05-04 22:39:00,SystemResetWarning,0826.8,4.99,000.00,026.0,025.5,000.0,034.3,027.9,017.9,0001.6,0016.15,0006.03,0005.02
2024-05-04 22:40:00,SystemResetWarning,0826.8,4.99,000.00,026.0,025.5,000.0,034.3,027.9,017.6,0001.0,0015.36,0006.00,0005.00
2024-05-04 22:41:00,SystemResetWarning,0826.8,5.01,000.00,026.1,025.6,000.0,034.3,027.9,017.8,0000.0,0014.89,0006.00,0004.98
2024-05-04 22:42:00,SystemResetWarning,0826.8,5.01,000.00,026.1,025.6,000.0,034.3,027.9,018.3,0000.0,0013.99,0006.01,0004.95
2024-05-04 22:43:00,SystemResetWarning,0826.8,5.00,000.00,026.1,025.6,000.0,034.4,027.9,017.8,0000.0,0013.83,0005.97,0004.90
2024-05-04 22:44:00,SystemResetWarning,0826.8,5.00,000.00,026.1,025.6,000.0,034.4,027.9,017.6,0000.0,0014.13,0005.99,0004.88
2024-05-04 22:45:00,SystemResetWarning,0826.8,4.99,000.00,026.1,025.6,000.0,034.4,027.9,017.7,0000.0,0014.11,0005.99,0004.85
2024-05-04 22:46:00,SystemResetWarning,0826.8,5.00,000.00,026.1,025.6,000.0,034.4,027.9,017.6,0000.0,0013.94,0006.00,0004.82
2024-05-04 22:47:00,SystemResetWarning,0826.8,5.00,000.00,026.1,025.6,000.0,034.4,028.0,017.6,0000.0,0013.76,0006.01,0004.81
2024-05-04 22:48:00,SystemResetWarning,0826.8,5.00,000.00,026.1,025.6,000.0,034.4,028.0,017.6,0000.0,0013.98,0005.99,0004.78
2024-05-04 22:49:00,SystemResetWarning,0826.8,5.01,000.00,026.1,025.6,000.0,034.5,028.0,017.8,0000.0,0013.14,0005.97,0004.76
2024-05-04 22:50:00,SystemResetWarning,0826.8,5.00,000.00,026.2,025.7,000.0,034.5,028.0,017.8,0000.0,0012.99,0005.93,0004.74
2024-05-04 22:51:00,SystemResetWarning,0826.8,4.99,000.00,026.2,025.7,000.0,034.5,028.0,018.2,0000.0,0013.24,0005.94,0004.75
2024-05-04 22:52:00,SystemResetWarning,0826.8,4.99,000.00,026.2,025.7,000.0,034.5,028.0,018.0,0000.0,0013.34,0005.91,0004.74
2024-05-04 22:53:00,SystemResetWarning,0826.8,4.99,000.00,026.2,025.7,000.0,034.5,028.1,017.8,0000.0,0013.35,0005.91,0004.74
2024-05-04 22:54:00,SystemResetWarning,0826.8,5.01,000.00,026.3,025.8,000.0,034.6,028.1,017.7,0000.0,0014.06,0005.88,0004.73
2024-05-04 22:55:00,SystemResetWarning,0826.8,5.01,000.00,026.3,025.8,000.0,034.6,028.1,017.8,0000.0,0014.10,0005.81,0004.71
2024-05-04 22:56:00,SystemResetWarning,0826.8,5.00,000.00,026.3,025.8,000.0,034.6,028.2,017.8,0000.0,0014.55,0005.78,0004.68
2024-05-04 22:57:00,SystemResetWarning,0826.8,4.99,000.00,026.4,025.9,000.0,034.6,028.2,017.6,0000.0,0014.25,0005.76,0004.65
2024-05-04 22:58:00,SystemResetWarning,0826.8,4.99,000.00,026.4,025.9,000.0,034.6,028.2,017.5,0000.0,0013.97,0005.71,0004.62
2024-05-04 22:59:00,SystemResetWarning,0826.8,5.00,000.00,026.4,025.9,000.0,034.6,028.3,017.9,0000.0,0014.13,0005.67,0004.59
